Regional Weather Roundup
Issued by NWS Portland, ME

Home | Current Version | Previous Version | Text Only | Print | Product List | Glossary On
Versions: 1 2 3 4 5 6 7 8 9 10 11 12 13 14 15 16 17 18 19 20 21 22 23 24 25 26 27 28 29 30 31 32 33 34 35 36 37 38 39 40 41 42 43 44 45 46 47 48 49 50
000
ASUS41 KGYX 220410
RWRGYX
WEATHER ROUNDUP FOR MAINE AND NEW HAMPSHIRE
NATIONAL WEATHER SERVICE GRAY ME
1200 AM EDT FRI SEP 22 2017

MEZ002-005-006-010-012-015-018-020-021-024-026-027-029-220500-
MAINE

CITY           SKY/WX    TMP DP  RH WIND       PRES   REMARKS
PORTLAND       MOCLDY    62  48  60 NE7       30.11S
SANFORD        CLOUDY    61  50  67 N9        30.11R
BAR HARBOR     CLOUDY    59  47  64 NE13      30.15S
WISCASSET      CLOUDY    62  49  62 VRB3      30.13S
ROCKLAND       CLOUDY    60  51  72 NE10G17   30.12S
FRYEBURG       CLOUDY    57  53  86 N5        30.16S
LEWISTONAUBURN CLOUDY    56  49  77 CALM      30.14S
AUGUSTA        PTCLDY    56  47  71 N5        30.15S
WATERVILLE     CLOUDY    55  49  80 N6        30.13S
BANGOR         CLOUDY    59  47  64 NE10      30.16F
GREENVILLE       N/A     56  44  64 SE8       30.18S
MILLINOCKET    PTCLDY    49  48  97 CALM      30.21S
HOULTON        PTCLDY    47  44  90 CALM      30.19F
PRESQUE ISLE   CLOUDY    45  44  97 CALM      30.22R
FRENCHVILLE    CLEAR     54  41  61 SE5       30.20S
CARIBOU        CLEAR     49  44  83 CALM      30.20R
$$

NHZ002-005-008-009-011-012-014-220500-
NEW HAMPSHIRE

CITY           SKY/WX    TMP DP  RH WIND       PRES   REMARKS
PORTSMOUTH     CLOUDY    65  49  55 NE12      30.06F
ROCHESTER      CLOUDY    63  47  55 NE8       30.09S
NASHUA         CLOUDY    65  50  58 N6        30.08F
MANCHESTER     CLOUDY    66  47  50 N10       30.07S
CONCORD        CLOUDY    63  49  60 N5        30.10F
LACONIA        CLOUDY    65  49  56 NE9       30.13F
PLYMOUTH       FAIR      48  47  95 CALM      30.14F FOG
BERLIN         MOCLDY    43  41  93 CALM      30.19S
WHITEFIELD     CLEAR     48  44  86 NE6       30.16S
JAFFREY        CLOUDY    61  51  70 VRB5      30.11F
KEENE          CLOUDY    62  50  64 N5        30.10S
LEBANON        CLOUDY    53  52  96 CALM      30.13S
MT WASHINGTON  NOT AVBL
$$

VTZ005-007-008-220500-
VERMONT

CITY           SKY/WX    TMP DP  RH WIND       PRES   REMARKS
ST JOHNSBURY     N/A     53  52  96 MISG      30.14S
MONTPELIER     CLEAR     52  51  97 CALM      30.20R
BURLINGTON     CLEAR     59  56  89 NE3       30.14R
$$

MAZ007-012-024-CTZ003-RIZ002-NYZ038-NYZ072-220500-
SOUTHERN NEW ENGLAND AND NY

CITY           SKY/WX    TMP DP  RH WIND       PRES   REMARKS
BOSTON         CLOUDY    65  53  65 N22G31    30.02F
WORCESTER      CLOUDY    62  46  55 N18G26    30.05F
NANTUCKET      HVY RAIN  60  60 100 N32G45    29.78S FOG
PROVIDENCE     CLOUDY    66  54  65 N31G41    29.98S
HARTFORD       CLOUDY    67  49  52 N12       30.04F
ALBANY         CLOUDY    66  55  67 N6        30.10S
NEW YORK CITY  CLOUDY    73  60  63 N9        30.00F
$$

ANZ081-ANZ082-ANZ150-NHZ014-MEZ023>029-220500-
COASTAL MARINE OBSERVATIONS

STATION/POSITION TIME  TEMP    WIND        PRES    WAVE
                       AIR SEA DIR/SP/G            HT/PER
                 (UTC) (F)     (DEG/KT/KT) (MB)    (FT/S)
MOUNT DESERT ROC 0400   58      20/ 28/ 31 1018.8F
MATINICUS ROCK   0400   58      40/ 28/ 32 1018.2S
ISLE OF SHOALS   0400   63      20/ 24/ 27 1017.2F
JEFFREYS LEDGE   0306      63                N/A     9/ 9
CASHES LEDGE BUO 0350   59 61              1016.0F  10/ 9
GEORGES BANK BUO 0350   74 74              1005.2R  13/ 9
$$

.............KEY..............
   WCI - WIND CHILL
   TC  - TEMPERATURE IN CELSIUS
   VSB - VISIBILITY IN MILES
   HX  - HEAT INDEX
   FAIR- INDICATES FEW OR NO CLOUDS BELOW 12,000 FT, WITH NO
         SIGNIFICANT WEATHER AND/OR OBSTRUCTIONS TO VISIBILITY.






USA.gov is the U.S. government's official web portal to all federal, state and local government web resources and services.